NK7I Weather Reports


Display with metric or nautical units.
time (UTC)temp
F
wind
direction
speed
MPH
gust
MPH
rain 1hr
in
rain 24hr
in
rain mn
in
humidity
%
barometer
mb
20260503060122 52 46 0.0 0.0 0.00 0.00 0.00 69 1013.5
20260503055122 52 46 0.0 1.0 0.00 0.00 0.00 70 1013.5
20260503054622 53 46 0.0 1.0 0.00 0.00 0.00 70 1013.4
20260503054122 53 46 1.0 2.0 0.00 0.00 0.00 69 1013.4
20260503053622 53 46 0.0 0.0 0.00 0.00 0.00 69 1013.3
20260503053122 54 46 0.0 0.0 0.00 0.00 0.00 69 1013.3
20260503052622 54 46 0.0 2.0 0.00 0.00 0.00 68 1013.3
20260503052122 54 46 0.0 1.0 0.00 0.00 0.00 67 1013.2
20260503051622 55 46 0.0 1.0 0.00 0.00 0.00 66 1013.2
20260503051122 55 46 0.0 1.0 0.00 0.00 0.00 67 1013.1
20260503050622 56 46 0.0 1.0 0.00 0.00 0.00 67 1013.0
20260503050122 56 46 0.0 1.0 0.00 0.00 0.00 65 1013.0
20260503045622 56 46 0.0 2.0 0.00 0.00 0.00 63 1012.9
20260503045123 57 46 0.0 2.0 0.00 0.00 0.00 63 1012.9
20260503044622 57 46 0.0 0.0 0.00 0.00 0.00 63 1012.9
20260503044122 57 46 0.0 0.0 0.00 0.00 0.00 63 1012.9
20260503043622 58 46 0.0 1.0 0.00 0.00 0.00 60 1012.9
20260503043122 58 46 0.0 1.0 0.00 0.00 0.00 62 1012.9
20260503042622 58 46 0.0 0.0 0.00 0.00 0.00 61 1012.9
20260503042122 59 46 0.0 0.0 0.00 0.00 0.00 61 1012.9
20260503041622 59 46 0.0 0.0 0.00 0.00 0.00 61 1012.9
20260503041122 59 46 0.0 0.0 0.00 0.00 0.00 60 1012.9
20260503040622 59 46 0.0 0.0 0.00 0.00 0.00 57 1012.8
20260503040122 60 46 0.0 0.0 0.00 0.00 0.00 58 1012.8
20260503035622 60 46 0.0 0.0 0.00 0.00 0.00 59 1012.8
20260503035122 60 46 0.0 0.0 0.00 0.00 0.00 58 1012.7
20260503034622 61 46 0.0 0.0 0.00 0.00 0.00 58 1012.6
20260503034122 61 46 0.0 0.0 0.00 0.00 0.00 57 1012.6
20260503033622 62 46 0.0 0.0 0.00 0.00 0.00 55 1012.6
20260503033122 62 46 0.0 0.0 0.00 0.00 0.00 55 1012.6
20260503032622 63 46 0.0 0.0 0.00 0.00 0.00 55 1012.5
20260503032122 63 46 0.0 0.0 0.00 0.00 0.00 50 1012.3
20260503031622 64 46 0.0 0.0 0.00 0.00 0.00 50 1012.3
20260503031122 65 46 0.0 0.0 0.00 0.00 0.00 50 1012.2
20260503030622 66 46 0.0 0.0 0.00 0.00 0.00 48 1012.3
20260503030122 67 46 0.0 0.0 0.00 0.00 0.00 50 1012.2
20260503025622 68 46 0.0 0.0 0.00 0.00 0.00 50 1012.3
20260503025122 69 46 0.0 0.0 0.00 0.00 0.00 43 1012.3
20260503024622 69 46 0.0 0.0 0.00 0.00 0.00 45 1012.2
20260503024122 70 46 0.0 0.0 0.00 0.00 0.00 43 1012.2
20260503023622 70 46 0.0 0.0 0.00 0.00 0.00 43 1012.1
20260503023122 70 46 0.0 0.0 0.00 0.00 0.00 41 1012.1
20260503022622 71 46 0.0 0.0 0.00 0.00 0.00 42 1012.1
20260503022122 71 46 0.0 0.0 0.00 0.00 0.00 41 1012.0
20260503021622 71 46 0.0 0.0 0.00 0.00 0.00 40 1012.0
20260503021122 72 46 0.0 0.0 0.00 0.00 0.00 39 1012.0
20260503020622 72 46 0.0 0.0 0.00 0.00 0.00 39 1012.0
20260503020122 72 46 0.0 0.0 0.00 0.00 0.00 39 1012.0
20260503015622 73 46 0.0 0.0 0.00 0.00 0.00 39 1012.1
20260503015122 73 46 0.0 0.0 0.00 0.00 0.00 38 1012.0
20260503014623 73 46 0.0 0.0 0.00 0.00 0.00 37 1012.0
20260503014122 73 46 0.0 0.0 0.00 0.00 0.00 36 1012.0
20260503013622 73 46 0.0 0.0 0.00 0.00 0.00 36 1012.0
20260503013122 74 46 0.0 1.0 0.00 0.00 0.00 37 1012.1
20260503012622 74 46 0.0 0.0 0.00 0.00 0.00 35 1012.0
20260503012122 74 46 0.0 0.0 0.00 0.00 0.00 40 1011.9
20260503011622 74 46 0.0 0.0 0.00 0.00 0.00 39 1012.0
20260503011122 74 46 0.0 0.0 0.00 0.00 0.00 38 1012.1
20260503010622 74 46 0.0 0.0 0.00 0.00 0.00 39 1012.1
20260503010123 74 45 1.0 4.0 0.00 0.00 0.00 33 1012.1
20260503005622 74 45 2.0 4.0 0.00 0.00 0.00 36 1012.3
20260503005122 74 45 1.0 4.0 0.00 0.00 0.00 35 1012.4
20260503004622 74 46 1.0 3.0 0.00 0.00 0.00 35 1012.4
20260503004127 74 47 1.0 3.0 0.00 0.00 0.00 34 1012.4
20260503004122 74 47 1.0 3.0 0.00 0.00 0.00 37 1012.4
20260503003622 73 48 1.0 3.0 0.00 0.00 0.00 39 1012.4
20260503003122 73 48 1.0 3.0 0.00 0.00 0.00 39 1012.4
20260503002622 73 48 1.0 4.0 0.00 0.00 0.00 39 1012.4
20260503002122 73 48 1.0 4.0 0.00 0.00 0.00 38 1012.4
20260503001622 73 45 3.0 9.0 0.00 0.00 0.00 36 1012.5
20260503001122 73 29 3.0 7.0 0.00 0.00 0.00 36 1012.3
20260503000622 73 23 1.0 4.0 0.00 0.00 0.00 39 1012.4
20260503000122 73 21 1.0 4.0 0.00 0.00 0.00 38 1012.4
20260502235623 74 18 3.0 7.0 0.00 0.00 0.00 38 1012.3
20260502235122 74 11 2.0 4.0 0.00 0.00 0.00 40 1012.4
20260502234623 75 11 1.0 4.0 0.00 0.00 0.00 39 1012.4
20260502234122 75 11 2.0 5.0 0.00 0.00 0.00 37 1012.4
20260502233622 76 8 2.0 5.0 0.00 0.00 0.00 38 1012.5
20260502233122 76 6 1.0 3.0 0.00 0.00 0.00 36 1012.6
20260502232622 76 6 1.0 3.0 0.00 0.00 0.00 35 1012.7
20260502232122 76 1 1.0 5.0 0.00 0.00 0.00 34 1012.6
20260502231622 76 354 1.0 4.0 0.00 0.00 0.00 33 1012.7
20260502231122 76 348 2.0 5.0 0.00 0.00 0.00 36 1012.7
20260502230623 76 359 1.0 7.0 0.00 0.00 0.00 34 1012.7
20260502230122 75 26 3.0 10.0 0.00 0.00 0.00 38 1012.9
20260502225622 75 19 1.0 4.0 0.00 0.00 0.00 40 1012.9
20260502225122 75 19 1.0 6.0 0.00 0.00 0.00 39 1013.0
20260502224622 76 16 2.0 6.0 0.00 0.00 0.00 37 1013.0
20260502224122 76 19 2.0 5.0 0.00 0.00 0.00 38 1013.0
20260502223622 75 46 2.0 7.0 0.00 0.00 0.00 46 1013.1
20260502223122 75 32 2.0 6.0 0.00 0.00 0.00 38 1013.1
20260502222622 75 36 2.0 7.0 0.00 0.00 0.00 39 1013.3
20260502222122 75 36 3.0 8.0 0.00 0.00 0.00 40 1013.3
20260502221622 75 49 4.0 9.0 0.00 0.00 0.00 45 1013.5
20260502221122 75 52 3.0 7.0 0.00 0.00 0.00 43 1013.5
20260502220623 75 52 3.0 7.0 0.00 0.00 0.00 39 1013.5
20260502220122 75 53 1.0 4.0 0.00 0.00 0.00 41 1013.6
20260502215622 74 55 3.0 8.0 0.00 0.00 0.00 44 1013.7
20260502215122 74 51 3.0 8.0 0.00 0.00 0.00 44 1013.7
20260502214622 74 52 2.0 8.0 0.00 0.00 0.00 46 1013.7
20260502214122 73 51 3.0 8.0 0.00 0.00 0.00 39 1013.8
20260502213622 73 48 2.0 8.0 0.00 0.00 0.00 42 1013.8
20260502213122 73 49 2.0 7.0 0.00 0.00 0.00 42 1013.9
20260502212623 73 49 2.0 4.0 0.00 0.00 0.00 42 1014.0
20260502212122 74 49 1.0 4.0 0.00 0.00 0.00 42 1014.0
20260502211622 74 48 1.0 4.0 0.00 0.00 0.00 40 1014.0
20260502211122 74 48 2.0 4.0 0.00 0.00 0.00 43 1014.1
20260502210622 74 48 3.0 5.0 0.00 0.00 0.00 42 1014.1
20260502210122 73 49 2.0 7.0 0.00 0.00 0.00 38 1014.1
20260502205622 73 51 3.0 7.0 0.00 0.00 0.00 40 1014.1
20260502205122 73 51 2.0 4.0 0.00 0.00 0.00 47 1014.2
20260502204622 72 52 1.0 4.0 0.00 0.00 0.00 40 1014.2
20260502204122 72 53 2.0 7.0 0.00 0.00 0.00 40 1014.3
20260502203624 72 54 4.0 7.0 0.00 0.00 0.00 46 1014.4
20260502203122 72 54 3.0 7.0 0.00 0.00 0.00 46 1014.4
20260502202622 72 50 3.0 7.0 0.00 0.00 0.00 46 1014.6
20260502202122 72 51 4.0 7.0 0.00 0.00 0.00 44 1014.6
20260502201622 72 49 4.0 7.0 0.00 0.00 0.00 45 1014.6
20260502201123 72 49 2.0 4.0 0.00 0.00 0.00 49 1014.8
20260502200622 71 50 2.0 4.0 0.00 0.00 0.00 50 1014.9
20260502200122 71 49 2.0 5.0 0.00 0.00 0.00 43 1014.9
20260502195622 71 48 1.0 4.0 0.00 0.00 0.00 48 1014.9
20260502195122 71 48 3.0 8.0 0.00 0.00 0.00 44 1015.0
20260502194623 71 25 2.0 7.0 0.00 0.00 0.00 44 1015.1
20260502194122 70 44 3.0 11.0 0.00 0.00 0.00 52 1015.2
20260502193622 70 47 2.0 8.0 0.00 0.00 0.00 47 1015.2
20260502193122 69 51 3.0 7.0 0.00 0.00 0.00 47 1015.2
20260502192622 69 53 2.0 5.0 0.00 0.00 0.00 51 1015.4
20260502192122 68 56 3.0 7.0 0.00 0.00 0.00 48 1015.6
20260502191622 68 55 3.0 8.0 0.00 0.00 0.00 45 1015.8
20260502191122 68 44 3.0 7.0 0.00 0.00 0.00 49 1015.9
20260502190622 68 41 2.0 6.0 0.00 0.00 0.00 51 1015.9
20260502190122 67 41 3.0 9.0 0.00 0.00 0.00 52 1015.9
20260502185622 67 46 2.0 8.0 0.00 0.00 0.00 47 1016.0
20260502185122 67 52 3.0 8.0 0.00 0.00 0.00 46 1016.0
20260502184622 67 54 4.0 10.0 0.00 0.00 0.00 52 1016.1
20260502184122 67 56 3.0 9.0 0.00 0.00 0.00 47 1016.1
20260502183622 66 54 3.0 7.0 0.00 0.00 0.00 52 1016.2
20260502183122 66 58 3.0 5.0 0.00 0.00 0.00 51 1016.3
20260502182622 65 58 3.0 8.0 0.00 0.00 0.00 52 1016.4
20260502182122 65 26 3.0 8.0 0.00 0.00 0.00 51 1016.5
20260502181622 65 46 2.0 7.0 0.00 0.00 0.00 53 1016.5
20260502181122 65 47 3.0 9.0 0.00 0.00 0.00 50 1016.7
20260502180622 64 50 3.0 8.0 0.00 0.00 0.00 54 1016.8
20260502180122 64 359 1.0 4.0 0.00 0.00 0.00 55 1016.8
20260502170122 62 22 2.0 7.0 0.00 0.00 0.00 57 1017.3
20260502164122 60 19 2.0 6.0 0.00 0.00 0.00 58 1017.5
20260502163622 59 52 3.0 10.0 0.00 0.00 0.00 57 1017.5
20260502163122 59 57 3.0 9.0 0.00 0.00 0.00 58 1017.5
20260502162622 58 49 4.0 10.0 0.00 0.00 0.00 58 1017.6
20260502162122 58 52 4.0 11.0 0.00 0.00 0.00 56 1017.6
20260502161622 59 51 2.0 8.0 0.00 0.00 0.00 62 1017.6
20260502161122 58 58 3.0 8.0 0.00 0.00 0.00 60 1017.7
20260502160622 58 54 1.0 5.0 0.00 0.00 0.00 63 1017.7
20260502160122 58 15 0.0 3.0 0.00 0.00 0.00 61 1017.7
20260502152122 53 359 0.0 3.0 0.00 0.00 0.00 74 1017.8
20260502151622 52 8 1.0 3.0 0.00 0.00 0.00 74 1017.8
20260502151122 52 48 0.0 0.0 0.00 0.00 0.00 74 1017.8
20260502150622 52 48 0.0 2.0 0.00 0.00 0.00 74 1017.8
20260502150122 51 48 0.0 2.0 0.00 0.00 0.00 76 1017.8
20260502140122 45 129 0.0 0.0 0.00 0.00 0.00 85 1017.8
20260502130622 43 129 0.0 0.0 0.00 0.00 0.00 84 1017.4
20260502130122 43 129 0.0 0.0 0.00 0.00 0.00 84 1017.4
20260502123622 43 129 0.0 0.0 0.00 0.00 0.00 81 1017.1
20260502123122 43 129 0.0 0.0 0.00 0.00 0.00 81 1017.1
20260502122622 43 129 0.0 0.0 0.00 0.00 0.00 81 1017.1
20260502122122 43 129 0.0 0.0 0.00 0.00 0.00 82 1017.0
20260502121622 43 129 0.0 0.0 0.00 0.00 0.00 81 1017.0
20260502121122 43 129 0.0 0.0 0.00 0.00 0.00 81 1016.9
20260502120622 43 129 0.0 0.0 0.00 0.00 0.00 81 1017.0
20260502120122 43 129 0.0 0.0 0.00 0.00 0.00 81 1017.0
20260502115622 43 129 0.0 0.0 0.00 0.00 0.00 81 1017.0
20260502115122 43 129 0.0 0.0 0.00 0.00 0.00 81 1016.9
20260502114622 43 129 0.0 0.0 0.00 0.00 0.00 81 1017.1
20260502114122 44 129 0.0 0.0 0.00 0.00 0.00 81 1017.1
20260502113622 44 129 0.0 0.0 0.00 0.00 0.00 80 1017.1
20260502113122 44 129 0.0 0.0 0.00 0.00 0.00 80 1017.1
20260502112622 44 129 0.0 0.0 0.00 0.00 0.00 80 1017.0
20260502112122 44 129 0.0 0.0 0.00 0.00 0.00 79 1017.0
20260502111622 45 129 0.0 0.0 0.00 0.00 0.00 78 1016.9
20260502111122 45 129 0.0 0.0 0.00 0.00 0.00 78 1017.0
20260502110622 45 129 0.0 0.0 0.00 0.00 0.00 77 1016.9
20260502110122 45 129 0.0 0.0 0.00 0.00 0.00 76 1017.0
20260502105622 45 129 0.0 0.0 0.00 0.00 0.00 77 1017.0
20260502105122 45 129 0.0 0.0 0.00 0.00 0.00 77 1017.0
20260502104622 45 129 0.0 0.0 0.00 0.00 0.00 77 1017.0
20260502104122 45 129 0.0 0.0 0.00 0.00 0.00 78 1017.0
20260502103622 45 129 0.0 0.0 0.00 0.00 0.00 78 1017.0
20260502103122 45 129 0.0 0.0 0.00 0.00 0.00 77 1017.0
20260502102622 45 129 0.0 0.0 0.00 0.00 0.00 77 1017.0
20260502102122 45 129 0.0 0.0 0.00 0.00 0.00 77 1017.0
20260502101622 45 129 0.0 0.0 0.00 0.00 0.00 77 1016.9
20260502101122 46 129 0.0 0.0 0.00 0.00 0.00 78 1016.8
20260502100623 46 129 0.0 0.0 0.00 0.00 0.00 77 1016.7
20260502100122 46 129 0.0 0.0 0.00 0.00 0.00 76 1016.8
20260502091122 47 125 0.0 0.0 0.00 0.00 0.00 74 1016.6
20260502090622 48 125 0.0 0.0 0.00 0.00 0.00 75 1016.6
20260502090122 48 125 0.0 0.0 0.00 0.00 0.00 74 1016.5
20260502071122 51 125 0.0 0.0 0.00 0.00 0.00 66 1015.9
20260502070622 51 125 0.0 0.0 0.00 0.00 0.00 61 1015.9
20260502070122 51 125 0.0 0.0 0.00 0.00 0.00 62 1015.8
20260502065622 52 125 0.0 0.0 0.00 0.00 0.00 61 1015.7
20260502065122 52 125 0.0 0.0 0.00 0.00 0.00 63 1015.6
20260502064623 52 125 0.0 0.0 0.00 0.00 0.00 61 1015.5
20260502064122 52 125 0.0 0.0 0.00 0.00 0.00 61 1015.5
20260502063622 52 125 0.0 0.0 0.00 0.00 0.00 63 1015.4
20260502063122 52 125 0.0 0.0 0.00 0.00 0.00 62 1015.4
20260502062622 53 125 0.0 0.0 0.00 0.00 0.00 62 1015.4
20260502062122 53 125 0.0 0.0 0.00 0.00 0.00 60 1015.2
20260502061622 53 125 0.0 0.0 0.00 0.00 0.00 60 1015.2